Elephant Butte, NM

7:05 PM MDT on August 31, 2016 (GMT -0600)
Truth Or Consequences Municipal

Weather History for KTCS - April, 2013

Change the Weather History Date:

Tuesday, April 16, 2013

  Actual Average Record
Temperature  
Mean Temperature 68 °F -  
Max Temperature 82 °F 75 °F 84 °F (2006)
Min Temperature 53 °F 45 °F 30 °F (1998)
Degree Days  
Heating Degree Days 0    
Month to date heating degree days 59  
Since 1 July heating degree days 2888  
Cooling Degree Days 3    
Month to date cooling degree days 16  
Year to date cooling degree days 18  
Growing Degree Days 18 (Base 50)    
Moisture  
Dew Point 14 °F    
Average Humidity 17    
Maximum Humidity 30    
Minimum Humidity 4    
Precipitation  
Precipitation 0.00 in - 0.13 in (2005)
Month to date precipitation T  
Year to date precipitation 0.14  
Sea Level Pressure  
Sea Level Pressure 29.58 in    
Wind  
Wind Speed 18 mph (SSW)    
Max Wind Speed 33 mph    
Max Gust Speed 44 mph    
Visibility 10 miles    
Events      
T = Trace of Precipitation, MM = Missing Value Source: NWS Daily Summary

Daily Weather History Graph

Daily Weather History Graph

Search for Another Location

Airport or City:

Trip Planner

Search our weather history database for the weather conditions in past years. The results will help you decide how hot, cold, wet, or windy it might be!

Date:

Astronomy

Apr. 16, 2013 Rise Set
Actual Time 6:37 AM MDT 7:40 PM MDT
Civil Twilight 6:11 AM MDT 8:06 PM MDT
Nautical Twilight 5:41 AM MDT 8:36 PM MDT
Astronomical Twilight 5:10 AM MDT 9:07 PM MDT
Moon 11:06 AM MDT (4/16) 12:32 AM MDT (4/16)
Length of Visible Light 13h 54m
Length of Day
13h 03m
Waxing Crescent, 34% of the Moon is Illuminated
Apr 16
Waxing Crescent
Apr 18
First Quarter
Apr 25
Full
May 2
Last Quarter
May 9
New

Hourly Weather History & Observations

Time (MDT) Temp. Dew Point Humidity Pressure Visibility Wind Dir Wind Speed Gust Speed Precip Events Conditions
12:53 AM 64.9 °F 18.0 °F 16% 29.59 in 10.0 mi SSW 13.8 mph 19.6 mph N/A   Clear
1:53 AM 63.0 °F 19.9 °F 19% 29.58 in 10.0 mi SSW 16.1 mph - N/A   Clear
2:53 AM 63.0 °F 21.9 °F 21% 29.58 in 10.0 mi SSW 11.5 mph - N/A   Clear
3:53 AM 59.0 °F 23.0 °F 25% 29.60 in 10.0 mi South 11.5 mph - N/A   Clear
4:53 AM 57.9 °F 23.0 °F 26% 29.61 in 10.0 mi South 10.4 mph - N/A   Clear
5:53 AM 55.0 °F 23.0 °F 29% 29.63 in 10.0 mi South 5.8 mph - N/A   Clear
6:53 AM 55.0 °F 24.1 °F 30% 29.64 in 10.0 mi SW 5.8 mph - N/A   Clear
7:53 AM 60.1 °F 27.0 °F 28% 29.65 in 10.0 mi South 10.4 mph - N/A   Clear
8:53 AM 64.0 °F 27.0 °F 25% 29.65 in 10.0 mi South 15.0 mph - N/A   Clear
9:53 AM 66.9 °F 26.1 °F 21% 29.63 in 10.0 mi SSE 25.3 mph 32.2 mph N/A   Clear
10:53 AM 71.1 °F 23.0 °F 16% 29.62 in 10.0 mi South 27.6 mph 36.8 mph N/A   Clear
11:53 AM 77.0 °F 18.0 °F 11% 29.58 in 10.0 mi SSW 27.6 mph 36.8 mph N/A   Clear
12:53 PM 79.0 °F 17.1 °F 10% 29.56 in 10.0 mi SSW 23.0 mph 36.8 mph N/A   Clear
1:53 PM 81.0 °F 3.9 °F 5% 29.54 in 10.0 mi SSW 24.2 mph 36.8 mph N/A   Clear
2:53 PM 81.0 °F 3.0 °F 5% 29.50 in 10.0 mi SSW 26.5 mph 41.4 mph N/A   Clear
3:53 PM 81.0 °F -0.0 °F 4% 29.51 in 10.0 mi WSW 26.5 mph 38.0 mph N/A   Clear
4:53 PM 80.1 °F 3.0 °F 5% 29.53 in 10.0 mi WSW 25.3 mph 39.1 mph N/A   Clear
5:53 PM 79.0 °F 1.9 °F 5% 29.54 in 10.0 mi SW 24.2 mph 34.5 mph N/A   Clear
6:53 PM 75.9 °F 1.9 °F 6% 29.55 in 10.0 mi SW 26.5 mph 32.2 mph N/A   Clear
7:53 PM 73.0 °F 1.0 °F 6% 29.56 in 10.0 mi SW 15.0 mph 28.8 mph N/A   Clear
8:53 PM 71.1 °F 3.0 °F 7% 29.56 in 10.0 mi SW 18.4 mph 23.0 mph N/A   Clear
9:53 PM 68.0 °F 6.1 °F 9% 29.57 in 10.0 mi SSW 10.4 mph - N/A   Clear
10:53 PM 66.9 °F 7.0 °F 10% 29.57 in 10.0 mi SSW 13.8 mph - N/A   Clear
11:53 PM 66.9 °F 8.1 °F 10% 29.55 in 10.0 mi SSW 17.3 mph 23.0 mph N/A   Clear